De Soto, IL

10:45 AM CDT on September 28, 2016 (GMT -0500)
Southern Illinois

Weather History for KMDH - March, 2013

Change the Weather History Date:

Thursday, March 7, 2013

  Actual Average Record
Temperature  
Mean Temperature 36 °F -  
Max Temperature 46 °F 54 °F 80 °F (1925)
Min Temperature 26 °F 29 °F 4 °F (1967)
Degree Days  
Heating Degree Days 29    
Moisture  
Dew Point 26 °F    
Average Humidity 69    
Maximum Humidity 89    
Minimum Humidity 46    
Precipitation  
Precipitation 0.00 in - - ()
Sea Level Pressure  
Sea Level Pressure 30.39 in    
Wind  
Wind Speed 3 mph (East)    
Max Wind Speed 8 mph    
Max Gust Speed -    
Visibility 9 miles    
Events      
Averages and records for this station are not official NWS values.
T = Trace of Precipitation, MM = Missing Value Source: NWS Daily Summary

Daily Weather History Graph

Daily Weather History Graph

Search for Another Location

Airport or City:

Trip Planner

Search our weather history database for the weather conditions in past years. The results will help you decide how hot, cold, wet, or windy it might be!

Date:

Astronomy

Mar. 07, 2013 Rise Set
Actual Time 6:19 AM CST 5:56 PM CST
Civil Twilight 5:53 AM CST 6:23 PM CST
Nautical Twilight 5:23 AM CST 6:53 PM CST
Astronomical Twilight 4:52 AM CST 7:23 PM CST
Moon 3:15 AM CST (3/7) 1:48 PM CST (3/7)
Length of Visible Light 12h 29m
Length of Day
11h 37m
Waning Crescent, 20% of the Moon is Illuminated
Mar 7
Waning Crescent
Mar 11
New
Mar 19
First Quarter
Mar 27
Full
Apr 2
Last Quarter

Hourly Weather History & Observations

Time (CST) Temp. Windchill Dew Point Humidity Pressure Visibility Wind Dir Wind Speed Gust Speed Precip Events Conditions
12:52 AM 28.9 °F - 24.1 °F 82% 30.35 in 10.0 mi Calm Calm - N/A   Clear
1:52 AM 27.0 °F 23.0 °F 23.0 °F 85% 30.36 in 10.0 mi NE 3.5 mph - N/A   Clear
2:52 AM 28.0 °F 22.8 °F 24.1 °F 85% 30.37 in 10.0 mi NE 4.6 mph - N/A   Clear
3:52 AM 28.9 °F - 23.0 °F 78% 30.39 in 10.0 mi Calm Calm - N/A   Clear
4:52 AM 27.0 °F - 23.0 °F 85% 30.40 in 7.0 mi Calm Calm - N/A   Clear
5:52 AM 26.1 °F - 21.9 °F 84% 30.41 in 5.0 mi Calm Calm - N/A   Clear
6:52 AM 27.0 °F - 24.1 °F 89% 30.41 in 4.0 mi Calm Calm - N/A   Clear
7:52 AM 30.9 °F 26.2 °F 26.1 °F 82% 30.42 in 6.0 mi NE 4.6 mph - N/A   Haze
8:52 AM 33.1 °F 27.7 °F 25.0 °F 72% 30.43 in 10.0 mi East 5.8 mph - N/A   Mostly Cloudy
9:52 AM 34.0 °F - 24.1 °F 67% 30.43 in 10.0 mi Calm Calm - N/A   Mostly Cloudy
10:52 AM 37.0 °F - 25.0 °F 62% 30.44 in 10.0 mi Calm Calm - N/A   Mostly Cloudy
11:52 AM 41.0 °F 39.0 °F 27.0 °F 57% 30.43 in 10.0 mi East 3.5 mph - N/A   Scattered Clouds
11:59 AM 39.2 °F 35.9 °F 26.6 °F 61% 30.41 in 10.0 mi East 4.6 mph - N/A   Mostly Cloudy
12:06 PM 39.2 °F - 24.8 °F 56% 30.40 in 10.0 mi Calm Calm - N/A   Scattered Clouds
12:52 PM 42.1 °F 38.4 °F 27.0 °F 55% 30.40 in 10.0 mi Variable 5.8 mph - N/A   Scattered Clouds
1:52 PM 44.1 °F 40.8 °F 28.0 °F 53% 30.37 in 10.0 mi ENE 5.8 mph - N/A   Partly Cloudy
2:52 PM 45.0 °F 41.8 °F 28.0 °F 52% 30.36 in 10.0 mi ESE 5.8 mph - N/A   Partly Cloudy
3:52 PM 45.0 °F 43.5 °F 25.0 °F 46% 30.34 in 10.0 mi SSE 3.5 mph - N/A   Clear
4:52 PM 46.0 °F 44.8 °F 26.1 °F 46% 30.35 in 10.0 mi ENE 3.5 mph - N/A   Partly Cloudy
5:52 PM 43.0 °F 38.2 °F 28.9 °F 58% 30.35 in 10.0 mi ENE 8.1 mph - N/A   Clear
6:52 PM 39.0 °F 34.0 °F 28.0 °F 65% 30.36 in 10.0 mi East 6.9 mph - N/A   Clear
7:52 PM 37.0 °F 31.6 °F 28.0 °F 70% 30.37 in 10.0 mi East 6.9 mph - N/A   Clear
8:52 PM 36.0 °F 30.3 °F 27.0 °F 70% 30.36 in 10.0 mi East 6.9 mph - N/A   Clear
9:52 PM 34.0 °F 29.8 °F 27.0 °F 75% 30.38 in 10.0 mi East 4.6 mph - N/A   Clear
10:52 PM 33.1 °F 28.7 °F 26.1 °F 75% 30.38 in 10.0 mi East 4.6 mph - N/A   Clear
11:52 PM 32.0 °F 28.7 °F 26.1 °F 79% 30.39 in 10.0 mi East 3.5 mph - N/A   Clear